TimeEDT,TemperatureF,Dew PointF,Humidity,Sea Level PressureIn,VisibilityMPH,Wind Direction,Wind SpeedMPH,Gust SpeedMPH,PrecipitationIn,Events,Conditions,WindDirDegrees,DateUTC
12:15 AM,54.0,54.0,100,29.87,3.0,ESE,5.8,-,N/A,,Mostly Cloudy,110,2013-04-30 04:15:00
12:34 AM,53.2,53.2,100,29.87,1.5,ESE,5.8,-,N/A,,Mostly Cloudy,120,2013-04-30 04:34:00
12:54 AM,53.1,53.1,100,29.88,2.5,ESE,5.8,-,N/A,,Clear,120,2013-04-30 04:54:00
1:15 AM,52.7,52.7,100,29.88,3.0,SE,6.9,-,N/A,,Clear,130,2013-04-30 05:15:00
1:34 AM,53.4,53.4,100,29.88,4.0,SE,6.9,-,N/A,,Clear,130,2013-04-30 05:34:00
1:54 AM,52.9,52.9,100,29.88,4.0,SE,5.8,-,N/A,,Scattered Clouds,130,2013-04-30 05:54:00
2:15 AM,53.1,53.1,100,29.88,5.0,ESE,5.8,-,N/A,,Clear,120,2013-04-30 06:15:00
2:34 AM,53.1,53.1,100,29.88,4.0,ESE,5.8,-,N/A,,Scattered Clouds,110,2013-04-30 06:34:00
2:54 AM,53.1,53.1,100,29.88,4.0,ESE,5.8,-,N/A,,Scattered Clouds,110,2013-04-30 06:54:00
3:15 AM,52.7,52.7,100,29.87,4.0,ESE,5.8,-,N/A,,Mostly Cloudy,110,2013-04-30 07:15:00
3:34 AM,52.9,52.9,100,29.87,5.0,ESE,6.9,-,N/A,,Mostly Cloudy,120,2013-04-30 07:34:00
3:55 AM,53.1,53.1,100,29.87,7.0,ESE,6.9,-,N/A,,Overcast,110,2013-04-30 07:55:00
4:15 AM,53.1,53.1,100,29.87,7.0,ESE,5.8,-,N/A,,Overcast,110,2013-04-30 08:15:00
4:34 AM,52.7,52.7,100,29.87,7.0,ESE,5.8,-,N/A,,Scattered Clouds,110,2013-04-30 08:34:00
4:55 AM,51.4,51.4,100,29.86,5.0,East,5.8,-,N/A,,Clear,100,2013-04-30 08:55:00
5:14 AM,51.8,51.8,100,29.86,7.0,ESE,6.9,-,N/A,,Mostly Cloudy,110,2013-04-30 09:14:00
5:34 AM,52.0,52.0,100,29.85,7.0,ESE,6.9,-,N/A,,Overcast,120,2013-04-30 09:34:00
5:55 AM,54.1,53.2,97,29.85,10.0,SE,10.4,-,N/A,,Scattered Clouds,140,2013-04-30 09:55:00
6:14 AM,54.9,52.9,93,29.84,10.0,SE,8.1,-,N/A,,Scattered Clouds,130,2013-04-30 10:14:00
6:34 AM,54.9,52.9,93,29.85,10.0,SE,8.1,-,N/A,,Mostly Cloudy,130,2013-04-30 10:34:00
6:55 AM,54.9,52.9,93,29.86,10.0,SE,6.9,-,N/A,,Overcast,130,2013-04-30 10:55:00
7:14 AM,55.0,53.2,94,29.85,10.0,SE,9.2,-,N/A,,Overcast,130,2013-04-30 11:14:00
7:34 AM,56.5,53.8,91,29.84,10.0,SE,11.5,-,N/A,,Mostly Cloudy,140,2013-04-30 11:34:00
7:55 AM,58.5,54.0,85,29.83,10.0,SE,12.7,21.9,N/A,,Scattered Clouds,140,2013-04-30 11:55:00
8:14 AM,59.7,53.6,80,29.84,10.0,SSE,10.4,18.4,N/A,,Mostly Cloudy,150,2013-04-30 12:14:00
8:34 AM,58.8,54.5,86,29.89,5.0,South,10.4,17.3,N/A,Rain,Light Rain,190,2013-04-30 12:34:00
8:54 AM,57.2,54.7,91,29.90,7.0,SSW,9.2,18.4,N/A,Rain,Light Rain,210,2013-04-30 12:54:00
9:14 AM,55.2,54.1,96,29.90,4.0,South,12.7,16.1,N/A,Rain,Rain,190,2013-04-30 13:14:00
9:35 AM,57.2,55.8,95,29.87,5.0,SSE,12.7,23.0,N/A,Rain,Rain,160,2013-04-30 13:35:00
9:54 AM,56.8,55.9,97,29.86,10.0,SSE,10.4,-,N/A,Rain,Light Rain,160,2013-04-30 13:54:00
10:15 AM,57.7,56.5,96,29.87,10.0,South,11.5,19.6,N/A,,Scattered Clouds,180,2013-04-30 14:15:00
10:35 AM,58.5,56.8,94,29.87,10.0,South,13.8,20.7,N/A,,Scattered Clouds,170,2013-04-30 14:35:00
10:54 AM,59.5,57.0,91,29.86,10.0,SSE,13.8,23.0,N/A,,Mostly Cloudy,160,2013-04-30 14:54:00
11:15 AM,59.4,56.8,91,29.85,10.0,SSE,13.8,20.7,N/A,Rain,Light Rain,160,2013-04-30 15:15:00
11:34 AM,59.2,56.8,92,29.84,7.0,SSE,17.3,26.5,N/A,Rain,Light Rain,150,2013-04-30 15:34:00
11:54 AM,59.2,57.6,94,29.83,7.0,SSE,15.0,19.6,N/A,Rain,Light Rain,150,2013-04-30 15:54:00
12:15 PM,59.9,58.1,94,29.82,10.0,SSE,15.0,20.7,N/A,,Mostly Cloudy,150,2013-04-30 16:15:00
12:34 PM,61.3,58.6,91,29.83,10.0,SSE,16.1,24.2,N/A,,Mostly Cloudy,150,2013-04-30 16:34:00
12:54 PM,63.0,58.5,85,29.83,10.0,SSE,13.8,27.6,N/A,,Mostly Cloudy,150,2013-04-30 16:54:00
1:15 PM,64.8,57.7,78,29.83,10.0,SSE,17.3,23.0,N/A,,Scattered Clouds,160,2013-04-30 17:15:00
1:34 PM,65.5,57.6,76,29.83,10.0,SSE,16.1,25.3,N/A,,Scattered Clouds,160,2013-04-30 17:34:00
1:54 PM,68.2,58.5,71,29.83,10.0,SSE,21.9,25.3,N/A,,Clear,160,2013-04-30 17:54:00
2:14 PM,68.9,58.1,68,29.81,10.0,SSE,17.3,32.2,N/A,,Clear,160,2013-04-30 18:14:00
2:34 PM,70.7,59.0,66,29.81,10.0,SSE,20.7,26.5,N/A,,Clear,160,2013-04-30 18:34:00
2:55 PM,70.9,57.6,63,29.80,10.0,SSE,19.6,32.2,N/A,,Clear,160,2013-04-30 18:55:00
3:14 PM,72.5,57.7,60,29.80,10.0,SSE,19.6,27.6,N/A,,Clear,160,2013-04-30 19:14:00
3:34 PM,73.8,57.9,58,29.79,10.0,South,19.6,29.9,N/A,,Clear,170,2013-04-30 19:34:00
3:55 PM,74.1,57.7,56,29.79,10.0,SSE,24.2,-,N/A,,Clear,150,2013-04-30 19:55:00
4:14 PM,73.9,57.6,56,29.79,10.0,SSE,19.6,29.9,N/A,,Clear,160,2013-04-30 20:14:00
4:34 PM,74.3,58.3,57,29.79,10.0,SSE,18.4,26.5,N/A,,Clear,160,2013-04-30 20:34:00
4:55 PM,73.8,58.3,58,29.79,10.0,SSE,15.0,24.2,N/A,,Clear,160,2013-04-30 20:55:00
5:14 PM,73.8,58.1,58,29.79,10.0,SSE,18.4,27.6,N/A,,Clear,160,2013-04-30 21:14:00
5:35 PM,73.6,57.9,58,29.80,10.0,South,15.0,25.3,N/A,,Clear,170,2013-04-30 21:35:00
5:55 PM,73.4,57.9,58,29.81,10.0,South,12.7,23.0,N/A,,Clear,170,2013-04-30 21:55:00
6:14 PM,73.6,58.1,58,29.82,10.0,SSE,16.1,23.0,N/A,,Clear,160,2013-04-30 22:14:00
6:35 PM,74.3,58.3,57,29.82,10.0,South,17.3,24.2,N/A,,Clear,170,2013-04-30 22:35:00
6:54 PM,74.8,58.1,56,29.82,10.0,South,12.7,25.3,N/A,,Clear,180,2013-04-30 22:54:00
7:14 PM,74.8,57.7,55,29.83,10.0,South,16.1,25.3,N/A,,Clear,170,2013-04-30 23:14:00
7:35 PM,74.3,57.6,56,29.84,10.0,South,12.7,20.7,N/A,,Clear,170,2013-04-30 23:35:00
7:54 PM,73.8,57.6,57,29.84,10.0,South,13.8,20.7,N/A,,Clear,170,2013-04-30 23:54:00
8:14 PM,72.9,57.6,59,29.85,10.0,South,12.7,19.6,N/A,,Clear,170,2013-05-01 00:14:00
8:35 PM,72.1,57.6,60,29.86,10.0,South,10.4,18.4,N/A,,Clear,170,2013-05-01 00:35:00
8:54 PM,71.6,57.6,61,29.87,10.0,SSE,12.7,19.6,N/A,,Clear,160,2013-05-01 00:54:00
9:14 PM,71.1,57.7,63,29.88,10.0,SSE,11.5,19.6,N/A,,Clear,160,2013-05-01 01:14:00
9:34 PM,70.9,58.1,64,29.88,10.0,South,12.7,23.0,N/A,,Clear,170,2013-05-01 01:34:00
9:54 PM,70.3,58.5,66,29.89,10.0,South,11.5,23.0,N/A,,Clear,170,2013-05-01 01:54:00
10:14 PM,70.2,58.6,67,29.89,10.0,South,12.7,19.6,N/A,,Clear,170,2013-05-01 02:14:00
10:34 PM,70.2,59.0,68,29.90,10.0,SSE,16.1,25.3,N/A,,Clear,160,2013-05-01 02:34:00
11:14 PM,70.5,59.2,67,29.90,10.0,South,15.0,24.2,N/A,,Clear,170,2013-05-01 03:14:00
11:34 PM,70.2,59.2,68,29.90,10.0,South,15.0,20.7,N/A,,Clear,170,2013-05-01 03:34:00
11:55 PM,70.7,59.4,67,29.90,10.0,South,12.7,21.9,N/A,,Clear,170,2013-05-01 03:55:00